Weather History for Central Park, NY

Change the Weather History Date:

Saturday, February 9, 2013

  Actual Average Record
Temperature  
Mean Temperature 27 °F 34 °F  
Max Temperature 32 °F 40 °F 63 °F (1990)
Min Temperature 21 °F 28 °F -15 °F (1934)
Degree Days  
Heating Degree Days 38 31  
Month to date heating degree days 328 282  
Since 1 July heating degree days 2837 2971  
Cooling Degree Days 0 0  
Month to date cooling degree days 0 0  
Year to date cooling degree days 0 0  
Moisture  
Dew Point 18 °F    
Average Humidity 64    
Maximum Humidity 92    
Minimum Humidity 36    
Precipitation  
Precipitation 0.38 in 0.10 in 1.74 in (1885)
Month to date precipitation 1.59 0.97  
Year to date precipitation 4.35 4.62  
Snow  
Snow 0.00 in 0.30 in 14.00 in (1969)
Month to date snowfall 7.1 2.9  
Since 1 July snowfall 13.7 15.0  
Snow Depth 0.00 in    
Sea Level Pressure  
Sea Level Pressure 29.97 in    
Wind  
Wind Speed 9 mph (NW)    
Max Wind Speed 18 mph    
Max Gust Speed 31 mph    
Visibility 4 miles    
Events Fog , Snow    
T = Trace of Precipitation, MM = Missing Value Source: NWS Daily Summary

Daily Weather History Graph

Daily Weather History Graph

Search for Another Location

Airport:

Trip Planner

Search our weather history database for the weather conditions in past years. The results will help you decide how hot, cold, wet, or windy it might be!

Date:

Astronomy

Feb. 09, 2013 Rise Set
Actual Time 6:57 AM EST 5:23 PM EST
Civil Twilight 6:28 AM EST 5:52 PM EST
Nautical Twilight 5:56 AM EST 6:24 PM EST
Astronomical Twilight 5:24 AM EST 6:56 PM EST
Moon 6:06 AM EST (2/9) 5:03 PM EST (2/9)
Length of Visible Light 11h 23m
Length of Day
10h 26m
Waning Crescent, 0% of the Moon is Illuminated
Feb 9
Waning Crescent
Feb 10
New
Feb 17
First Quarter
Feb 25
Full
Mar 4
Last Quarter

Hourly Weather History & Observations

Time (EST) Temp. Windchill Dew Point Humidity Pressure Visibility Wind Dir Wind Speed Gust Speed Precip Events Conditions
12:51 AM 27.0 °F - 25.0 °F 92% 29.76 in 0.2 mi North - - 0.13 in Fog , Snow Heavy Snow
1:00 AM 27.0 °F 19.5 °F 25.0 °F 92% 29.78 in 0.2 mi Variable 6.9 mph - 0.02 in Fog , Snow Snow
1:51 AM 27.0 °F 19.5 °F 25.0 °F 92% 29.77 in 0.5 mi Variable 6.9 mph - 0.10 in Fog , Snow Snow
2:51 AM 28.0 °F 18.1 °F 26.1 °F 92% 29.78 in 0.2 mi NW 11.5 mph 17.3 mph 0.12 in Fog , Snow Heavy Snow
3:43 AM 28.0 °F 21.7 °F 26.1 °F 92% 29.81 in 1.2 mi Variable 5.8 mph - 0.05 in Snow Light Snow
3:51 AM 28.0 °F 22.8 °F 26.1 °F 92% 29.79 in 1.2 mi Variable 4.6 mph - 0.05 in Snow Light Snow
4:13 AM 28.0 °F 22.8 °F 25.0 °F 88% 29.82 in 1.2 mi NNW 4.6 mph - 0.00 in Snow Light Snow
4:28 AM 28.0 °F - 25.0 °F 88% 29.83 in 2.0 mi North - - 0.00 in   Overcast
4:35 AM 28.0 °F 22.8 °F 25.0 °F 88% 29.83 in 2.5 mi Variable 4.6 mph - 0.00 in   Overcast
4:49 AM 28.4 °F 19.7 °F 24.8 °F 86% 29.84 in 1.2 mi North 9.2 mph - 0.00 in Snow Light Snow
4:51 AM 28.0 °F 20.0 °F 24.1 °F 85% 29.82 in 1.2 mi NNW 8.1 mph - 0.00 in Snow Light Snow
5:10 AM 28.0 °F 20.8 °F 24.1 °F 85% 29.84 in 2.5 mi Variable 6.9 mph - 0.00 in   Overcast
5:51 AM 28.0 °F 19.3 °F 24.1 °F 85% 29.83 in 2.5 mi NW 9.2 mph 18.4 mph 0.00 in   Overcast
6:51 AM 28.0 °F 18.6 °F 23.0 °F 81% 29.86 in 2.5 mi NW 10.4 mph 16.1 mph N/A   Haze
7:36 AM 28.0 °F 18.1 °F 23.0 °F 81% 29.89 in 1.8 mi WNW 11.5 mph 20.7 mph N/A   Haze
7:43 AM 28.0 °F 18.6 °F 23.0 °F 81% 29.90 in 1.8 mi NW 10.4 mph 21.9 mph N/A   Haze
7:51 AM 28.0 °F 20.8 °F 21.9 °F 78% 29.88 in 1.8 mi Variable 6.9 mph 21.9 mph N/A   Haze
8:51 AM 26.1 °F 15.0 °F 19.9 °F 78% 29.93 in 1.8 mi NW 12.7 mph 24.2 mph N/A   Haze
9:46 AM 26.6 °F 18.2 °F 17.6 °F 69% 29.98 in 2.0 mi WNW 8.1 mph 24.2 mph N/A   Haze
9:51 AM 26.1 °F 17.6 °F 18.0 °F 71% 29.96 in 2.0 mi NW 8.1 mph 19.6 mph N/A   Haze
10:10 AM 25.0 °F 14.2 °F 17.1 °F 72% 30.00 in 2.0 mi NW 11.5 mph 21.9 mph N/A   Haze
10:51 AM 26.1 °F 14.0 °F 17.1 °F 69% 29.99 in 2.5 mi WNW 15.0 mph 28.8 mph N/A   Haze
11:44 AM 27.0 °F 17.3 °F 17.1 °F 66% 30.03 in 3.0 mi NW 10.4 mph 26.5 mph N/A   Haze
11:51 AM 28.0 °F - 17.1 °F 63% 30.01 in 3.0 mi North - - N/A   Haze
12:51 PM 30.9 °F 25.2 °F 18.0 °F 59% 30.01 in 6.0 mi Variable 5.8 mph 19.6 mph N/A   Haze
1:51 PM 30.9 °F 24.3 °F 14.0 °F 50% 30.03 in 10.0 mi Variable 6.9 mph 16.1 mph N/A   Clear
2:51 PM 32.0 °F 22.5 °F 14.0 °F 48% 30.06 in 10.0 mi WNW 12.7 mph 20.7 mph N/A   Clear
3:51 PM 30.9 °F 22.2 °F 9.0 °F 40% 30.08 in 10.0 mi NW 10.4 mph 27.6 mph N/A   Clear
4:51 PM 30.9 °F 24.3 °F 6.1 °F 35% 30.11 in 10.0 mi Variable 6.9 mph 23.0 mph N/A   Clear
5:51 PM 28.9 °F 19.2 °F 6.1 °F 38% 30.15 in 10.0 mi WNW 11.5 mph 27.6 mph N/A   Clear
6:51 PM 28.0 °F 21.7 °F 8.1 °F 43% 30.18 in 10.0 mi Variable 5.8 mph - N/A   Clear
7:51 PM 26.1 °F 19.4 °F 5.0 °F 41% 30.22 in 10.0 mi Variable 5.8 mph - N/A   Clear
8:51 PM 25.0 °F 15.5 °F 5.0 °F 43% 30.26 in 10.0 mi NW 9.2 mph - N/A   Clear
9:51 PM 24.1 °F 15.2 °F 6.1 °F 46% 30.30 in 10.0 mi WNW 8.1 mph - N/A   Clear
10:51 PM 21.9 °F 14.5 °F 6.1 °F 51% 30.31 in 10.0 mi Variable 5.8 mph - N/A   Clear
11:51 PM 21.9 °F 12.5 °F 6.1 °F 51% 30.34 in 10.0 mi NW 8.1 mph - N/A   Clear